Back to catalog

STARLINK-37700

AliveCommunicationsSSO
NORAD 69215·PAYLOAD·🇺🇸 United States

Launched May 26, 2026 from Vandenberg Space Force Base

Loading…

Next Passes (next 24 hours)

TLE

FreshSource: CelesTrak SupGP

Epoch: Sep 14, 2026, 23:19 UTC

1 69215C 26115E   26257.97201389  .00039089  00000+0  12134-2 0  2577
2 69215  97.2832 274.0957 0001366  90.3209 149.3113 15.33419565    14

Track STARLINK-37700 in real time with AllMySat

Download on the App Store